Location: Serra Dois Irm�os
(8.5000°S, 41.0833°W)
Time: 12:27:03
(UTC+00:00)

Daily predictions for brighter satellites

Satellite Brightness Start Highest point End
(mag) Time Altitude Azimuth Time Altitude Azimuth Time Altitude Azimuth
ARIANE 5 R/B 4.2 20:40:11 10° WNW 20:44:16 67° NNE 21:11:04 10° E
CZ-4C R/B 4.3 21:11:23 10° WSW 21:14:23 17° WNW 21:17:23 10° NNW
Cosmos 1908 Rocket 4.1 21:10:10 10° NNW 21:14:27 65° W 21:18:45 10° S
ARIANE 5 R/B 3.9 21:15:42 10° NW 21:18:56 28° NNE 21:30:00 10° ENE
Starlink Launch 2 trailer 4.3 21:20:22 10° S 21:22:02 16° SE 21:23:41 10° E
Cosmos 2266 Rocket 4.1 21:16:11 10° S 21:22:33 79° E 21:28:57 10° N
Cosmos 1441 Rocket 3.0 21:19:26 10° N 21:23:08 79° E 21:26:52 10° S
IRIDIUM 104 4.3 21:19:35 10° S 21:24:49 75° E 21:30:01 10° N
Cosmos 405 2.9 21:23:09 10° S 21:26:40 73° E 21:30:09 10° N
Meteor 1-13 Rocket 4.3 21:21:19 10° S 21:27:13 89° E 21:32:56 10° N
Atlas Centaur 2 4.4 21:25:09 10° N 21:29:56 16° NNE 21:34:16 11° ENE
FALCON 9 DEB 3.7 21:28:52 10° S 21:30:47 22° SE 21:32:10 14° E
CZ-2D R/B 4.3 21:29:42 10° SE 21:33:00 26° E 21:36:13 10° NNE
IRIDIUM 114 4.4 21:28:41 10° S 21:33:55 85° W 21:39:08 10° N
USA 81 4.0 21:30:26 10° S 21:35:44 76° E 21:40:59 10° N
Palapa 6 Rocket 3.3 21:33:30 10° WNW 21:38:37 74° SSW 21:42:50 10° ESE
Cosmos 2297 4.4 21:37:34 10° NNE 21:42:23 29° ENE 21:47:12 10° SE
STARLINK 1044 4.2 21:40:20 10° S 21:42:42 22° SE 21:43:49 18° E
NOAA 11 4.5 21:39:14 10° SSE 21:44:23 44° ENE 21:49:30 10° N
CZ-4 R/B 1.5 21:40:42 10° S 21:44:47 80° WSW 21:48:45 10° NNW
S3M 4.1 21:39:33 10° NNE 21:45:24 49° E 21:51:17 10° SSE
YAOGAN 6 4.2 21:44:48 10° S 21:48:02 36° WSW 21:51:16 10° NNW
Cosmos 2151 Rocket 4.3 21:44:40 10° NNE 21:48:31 31° E 21:52:25 10° SSE
Cosmos 1900 4.3 21:44:34 10° N 21:49:22 58° ENE 21:54:14 10° SSE
Meteor 1-23 Rocket 4.2 21:44:26 10° S 21:50:05 72° E 21:55:46 10° N
Delta R/B 1.8 21:50:49 10° SW 21:51:57 40° SSE 21:51:57 40° SSE
Cosmos 921 Rocket 3.0 21:49:58 10° N 21:54:23 74° E 21:58:52 10° SSE
Cosmos 292 Rocket 4.2 21:49:39 10° NNW 21:54:25 66° WSW 21:59:11 10° S
CZ-2C R/B 3.6 21:50:05 10° NNE 21:54:38 82° ESE 21:59:08 10° S
STARLINK 1046 4.4 21:51:32 10° S 21:54:40 29° SE 21:55:50 23° E
Meteor 2-19 Rocket 4.4 21:49:04 10° S 21:55:09 79° E 22:01:14 10° N
Cosmos 1553 Rocket 4.1 21:51:29 10° N 21:57:53 85° W 22:04:17 10° S
STARLINK 1039 4.2 21:54:42 10° S 21:57:56 32° SE 21:58:59 26° E
STARLINK 1045 4.1 21:56:24 10° SSW 21:59:40 34° SE 22:00:39 28° E
FALCON 9 DEB 2.1 21:58:32 10° SW 22:00:53 72° NW 22:01:12 57° N
SL-8 R/B 3.6 21:58:25 10° NW 22:03:14 78° NE 22:08:04 10° SE
SAR-Lupe-2 3.4 22:02:45 22° NNE 22:04:59 80° ESE 22:08:35 10° S
FALCON 9 DEB 2.8 22:05:44 10° SW 22:08:00 46° NW 22:08:05 46° NW
Meteor 2-9 Rocket 4.1 22:05:24 10° N 22:11:05 87° E 22:16:39 10° S
Okean 2 Rocket 3.7 22:11:20 10° NNW 22:15:46 58° W 22:20:15 10° S
USA 267 3.8 22:13:51 10° ESE 22:19:36 33° NE 22:25:18 10° N
Cosmos 2098 Rocket 3.7 22:16:04 10° SSE 22:20:11 35° ESE 22:20:11 35° ESE
Cosmos 2315 Rocket 4.1 22:23:42 32° NE 22:26:13 49° E 22:32:10 10° SSE
Iridium 4 Rocket 3.9 22:20:45 10° SSE 22:26:32 57° E 22:28:40 37° NNE
Cosmos 1975 Rocket 3.0 22:22:25 10° S 22:26:46 82° W 22:28:27 37° N
ADEOS Rocket 4.5 22:22:23 10° NNW 22:27:24 32° W 22:32:51 10° SW
Okean 2 3.3 22:23:47 10° S 22:27:56 66° E 22:28:10 65° ENE
Cosmos 968 Rocket 4.1 22:24:57 10° S 22:29:47 38° ESE 22:29:47 38° ESE
Cosmos 1544 3.5 22:31:21 39° NNW 22:32:29 61° W 22:36:07 10° S
Meteor 2-21 4.4 22:26:52 10° S 22:32:51 58° E 22:34:24 45° NE
Ariane Rocket 2.9 22:28:45 10° SSE 22:33:53 85° ENE 22:37:08 23° N
ARIANE 5 R/B 4.5 22:32:46 10° WNW 22:36:03 39° N 22:36:03 39° N
Cosmos 883 Rocket 4.4 22:30:52 13° N 22:36:32 85° E 22:42:44 10° S
STARLINK 1050 3.8 22:33:49 10° SW 22:36:55 53° W 22:36:55 53° W
H-2A R/B 4.0 22:25:39 10° NW 22:37:53 25° N 22:38:04 25° NNE
STARLINK 1055 4.1 22:37:02 10° SW 22:39:59 46° W 22:39:59 46° W
Aurora 2 Rocket 4.4 22:39:15 10° WSW 22:41:10 15° SSW 22:42:11 13° S
MOS 1 4.2 22:37:22 10° SSE 22:42:57 62° ENE 22:43:23 60° NE
STARLINK 1022 4.4 22:39:58 10° SW 22:42:47 41° W 22:42:47 41° W
Cosmos 405 Rocket 4.3 22:41:23 15° NW 22:43:58 33° W 22:47:31 10° SSW
ARIANE 5 DEB (SYLDA) 3.6 22:41:25 10° WNW 22:46:14 50° N 22:47:26 45° NE
ATLAS CENTAUR Rocket 3.5 22:39:46 10° SW 22:49:12 32° S 22:50:47 26° SE
Cosmos 389 Rocket 4.2 22:46:46 10° S 22:48:39 29° S 22:48:39 29° S
IRS-1A Rocket 4.4 22:46:44 10° S 22:52:24 75° WSW 22:56:11 22° NNW
NOSS 3-3 (A) 4.1 22:47:02 10° S 22:52:05 47° SE 22:52:05 47° SE
NOSS 3-3 (C) 4.1 22:47:11 10° S 22:52:12 46° SE 22:52:12 46° SE
Skynet4D Del rocket 4.1 22:49:09 10° WSW 22:55:56 55° NNW 22:56:32 53° N
Ariane H10 4.3 13:24:54 10° WNW 23:01:11 83° N 23:03:08 56° ENE
Centaur AC-125 4.3 22:16:25 10° WNW 23:01:58 78° NNE 23:04:11 52° E
ARGOS 4.5 23:00:13 10° SSE 23:02:48 28° SSE 23:02:48 28° SSE
Cosmos 1943 Rocket 4.3 23:11:05 15° SSE 23:11:05 15° SSE 23:11:58 10° SSE
Cosmos 1833 Rocket 4.2 23:01:38 10° S 23:04:20 24° SSE 23:04:20 24° SSE
ATLAS CENTAUR R/B 3.4 23:07:46 10° S 23:09:55 26° S 23:09:55 26° S
COSMOS 2406 3.4 23:07:58 10° SSW 23:13:07 69° SW 23:13:07 69° SW
Atlas Centaur 2 3.8 23:11:43 10° NW 23:17:00 38° NNW 23:17:00 38° NNW
CZ-2C R/B 3.4 23:23:03 50° WSW 23:23:03 50° WSW 23:27:43 10° SSW
H-2A R/B 3.6 23:37:13 10° S 23:40:48 33° SW 23:40:48 33° SW
Cosmos 2082 Rocket 4.2 23:41:16 10° S 23:43:02 20° S 23:43:02 20° S
